EW9743 Weather Reports


Display with metric or nautical units.
time (UTC)temp
F
wind
direction
speed
MPH
gust
MPH
rain 1hr
in
rain 24hr
in
rain mn
in
humidity
%
barometer
mb
20260507140030 57 134 0.0 0.0 0.00 0.09 0.00 54 1012.6
20260507134527 56 134 0.0 0.0 0.00 0.15 0.00 53 1012.9
20260507133024 56 134 0.0 1.0 0.00 0.15 0.00 61 1013.1
20260507131517 54 134 0.0 1.0 0.00 0.15 0.00 56 1012.9
20260507130015 54 134 0.0 0.0 0.00 0.15 0.00 58 1013.0
20260507124515 53 134 0.0 0.0 0.00 0.15 0.00 60 1013.0
20260507123014 52 134 0.0 0.0 0.00 0.15 0.00 63 1012.8
20260507121508 0 0.0 0.0 0.00 0.15 0.00 1012.8
20260507120006 0 0.0 0.0 0.00 0.15 0.00 1012.8
20260507114639 0 0.0 0.0 0.00 0.15 0.00 1012.9
20260507113055 0 0.0 0.0 0.00 0.15 0.00 1012.7
20260507111550 0 0.0 0.0 0.00 0.15 0.00 1012.7
20260507110044 0 0.0 0.0 0.00 0.15 0.00 1012.6
20260507104539 0 0.0 0.0 0.00 0.15 0.00 1012.2
20260507103034 0 0.0 0.0 0.00 0.15 0.00 1012.0
20260507101529 0 134 0.0 0.0 0.00 0.15 0.00 1011.8
20260507100027 49 134 0.0 0.0 0.00 0.15 0.00 71 1011.6
20260507094525 49 134 0.0 0.0 0.00 0.15 0.00 71 1011.6
20260507093026 49 134 0.0 0.0 0.00 0.15 0.00 71 1011.6
20260507091511 50 134 0.0 0.0 0.00 0.15 0.00 69 1011.6
20260507090019 50 134 0.0 0.0 0.00 0.15 0.00 67 1011.5
20260507084506 51 134 0.0 0.0 0.00 0.15 0.00 68 1011.3
20260507083006 51 134 0.0 0.0 0.00 0.15 0.00 67 1011.2
20260507081505 51 134 0.0 0.0 0.00 0.15 0.00 69 1011.2
20260507080005 51 134 0.0 0.0 0.00 0.15 0.00 70 1011.0
20260507074502 51 134 0.0 0.0 0.00 0.15 0.00 72 1010.8
20260507073002 52 134 0.0 0.0 0.00 0.00 0.00 74 1010.9
20260507071505 52 134 0.0 0.0 0.00 0.15 0.00 75 1011.1
20260507070008 52 134 0.0 0.0 0.00 0.15 0.00 77 1011.2
20260507064502 52 134 0.0 0.0 0.00 0.15 0.00 79 1011.3
20260507063107 53 134 0.0 0.0 0.00 0.15 0.00 78 1011.3
20260507061533 53 134 0.0 0.0 0.00 0.15 0.00 80 1011.4
20260507060031 53 134 0.0 0.0 0.00 0.15 0.00 79 1011.4
20260507054559 54 134 0.0 0.0 0.00 0.15 0.00 78 1011.0
20260507053111 54 134 0.0 0.0 0.00 0.15 0.00 80 1010.9
20260507050042 54 134 0.0 0.0 0.00 0.15 0.00 80 1010.8
20260507044539 54 134 0.0 0.0 0.00 0.15 0.00 80 1010.9
20260507043038 54 134 0.0 0.0 0.00 0.15 0.00 79 1010.7
20260507041535 54 134 0.0 0.0 0.00 0.15 0.00 78 1011.1
20260507040033 55 134 0.0 1.0 0.00 0.15 0.00 79 1011.0
20260507034528 55 134 0.0 0.0 0.00 0.15 0.15 79 1011.1
20260507033031 55 134 0.0 0.0 0.00 0.15 0.15 79 1010.5
20260507031527 55 134 0.0 0.0 0.00 0.15 0.15 80 1010.9
20260507030026 55 134 0.0 0.0 0.00 0.15 0.15 81 1010.9
20260507024523 55 134 0.0 0.0 0.00 0.15 0.15 83 1010.7
20260507023021 55 134 0.0 2.0 0.00 0.15 0.15 83 1010.4
20260507021521 56 134 0.0 0.0 0.00 0.15 0.15 84 1010.5
20260507020021 56 134 0.0 0.0 0.00 0.15 0.15 84 1010.5
20260507014526 56 134 0.0 0.0 0.00 0.15 0.15 83 1010.2
20260507013033 56 134 0.0 0.0 0.00 0.15 0.15 83 1010.2
20260507011514 57 134 0.0 0.0 0.00 0.15 0.15 82 1010.4
20260507010010 58 134 0.0 0.0 0.00 0.15 0.15 81 1009.9
20260507004506 58 134 0.0 0.0 0.00 0.15 0.15 80 1010.2
20260507003043 59 134 0.0 0.0 0.00 0.15 0.15 80 1009.9
20260507001540 60 134 0.0 0.0 0.00 0.15 0.15 80 1009.8
20260507000033 60 134 0.0 0.0 0.00 0.15 0.15 78 1009.4
20260506234527 61 134 0.0 0.0 0.00 0.15 0.15 78 1009.2
20260506233027 61 134 0.0 0.0 0.00 0.15 0.15 78 1008.5
20260506231522 62 134 0.0 0.0 0.00 0.15 0.15 78 1008.3
20260506230020 62 134 0.0 0.0 0.00 0.15 0.15 80 1008.2
20260506224518 63 134 0.0 0.0 0.00 0.15 0.15 81 1008.2
20260506223017 63 134 0.0 0.0 0.00 0.15 0.15 81 1007.9
20260506221516 64 134 0.0 0.0 0.00 0.15 0.15 83 1007.7
20260506220015 64 134 0.0 0.0 0.00 0.15 0.15 83 1007.5
20260506214524 65 134 0.0 0.0 0.01 0.15 0.15 87 1007.5
20260506213014 65 134 0.0 0.0 0.01 0.15 0.15 87 1007.0
20260506211512 65 134 0.0 2.0 0.01 0.15 0.15 86 1006.9
20260506210009 66 134 0.0 0.0 0.01 0.15 0.15 88 1006.5
20260506204509 67 134 0.0 0.0 0.00 0.14 0.14 86 1006.5
20260506203008 68 134 0.0 1.0 0.00 0.14 0.14 83 1006.4
20260506201509 69 134 0.0 1.0 0.00 0.14 0.14 83 1006.3
20260506200005 69 134 0.0 1.0 0.00 0.14 0.14 83 1006.3
20260506194504 69 134 0.0 1.0 0.00 0.14 0.14 85 1006.3
20260506193001 67 134 0.0 3.0 0.00 0.14 0.14 88 1006.4
20260506191502 67 134 0.0 1.0 0.00 0.14 0.14 88 1006.5
20260506190101 65 134 0.0 1.0 0.00 0.14 0.14 92 1006.5
20260506184604 65 134 0.0 1.0 0.01 0.14 0.14 91 1006.5
20260506183104 65 134 0.0 0.0 0.01 0.14 0.14 92 1006.9
20260506181622 65 134 0.0 0.0 0.01 0.14 0.14 92 1006.8
20260506180032 65 134 0.0 0.0 0.01 0.14 0.14 90 1006.9
20260506174527 65 134 0.0 0.0 0.00 0.13 0.13 89 1006.8
20260506173023 65 134 0.0 0.0 0.00 0.13 0.13 88 1006.6
20260506171523 65 134 0.0 8.0 0.00 0.13 0.13 87 1006.6
20260506170023 65 134 0.0 4.0 0.00 0.13 0.13 87 1006.5
20260506164525 64 134 1.0 3.0 0.00 0.13 0.13 89 1006.5
20260506163020 64 134 0.0 8.0 0.00 0.13 0.13 89 1006.6
20260506161518 64 134 0.0 6.0 0.00 0.13 0.13 90 1006.6
20260506160018 63 134 1.0 6.0 0.00 0.13 0.13 90 1006.5
20260506154517 62 134 1.0 10.0 0.00 0.13 0.13 92 1006.4
20260506153020 61 134 3.0 11.0 0.00 0.13 0.13 93 1006.5
20260506151513 61 134 1.0 8.0 0.03 0.13 0.13 94 1006.5
20260506150013 61 134 2.0 8.0 0.07 0.13 0.13 95 1006.6
20260506144516 60 134 1.0 6.0 0.10 0.13 0.13 95 1006.3
20260506143011 60 134 2.0 5.0 0.10 0.13 0.13 95 1006.6
20260506141507 59 134 1.0 5.0 0.10 0.10 0.10 94 1007.1